This is the latest recevied weather packets stored in our database for station/object N3TTT-13. If no packets are shown the sender has not sent any weather packets the latest 10 day(s).
| Time | Temp. | Humidity | Pressure | Rain* | Wind** | Luminosity | Snow |
|---|---|---|---|---|---|---|---|
| 1777906431 | 20° C | 48% | 1014.8 hPa | 0 mm | - | 770 W/m² | - |
| 1777906128 | 21.11° C | 46% | 1014.7 hPa | 0 mm | - | 805 W/m² | - |
| 1777905824 | 20° C | 47% | 1014.7 hPa | 0 mm | - | 810 W/m² | - |
| 1777905521 | 20.56° C | 50% | 1014.7 hPa | 0 mm | - | 807 W/m² | - |
| 1777905218 | 20° C | 52% | 1014.7 hPa | 0 mm | - | 751 W/m² | - |
| 1777904916 | 19.44° C | 52% | 1014.6 hPa | 0 mm | - | 737 W/m² | - |
| 1777904613 | 18.89° C | 52% | 1014.7 hPa | 0 mm | - | 734 W/m² | - |
| 1777904310 | 20° C | 50% | 1014.9 hPa | 0 mm | - | 767 W/m² | - |
| 1777904007 | 19.44° C | 53% | 1014.8 hPa | 0 mm | - | 721 W/m² | - |
| 1777903704 | 18.89° C | 53% | 1014.7 hPa | 0 mm | - | 682 W/m² | - |
| 1777903399 | 18.33° C | 54% | 1014.9 hPa | 0 mm | - | 657 W/m² | - |
| 1777903096 | 18.89° C | 54% | 1014.8 hPa | 0 mm | - | 639 W/m² | - |
| 1777902793 | 18.33° C | 56% | 1014.8 hPa | 0 mm | - | 630 W/m² | - |
| 1777902490 | 17.78° C | 58% | 1014.9 hPa | 0 mm | - | 632 W/m² | - |
| 1777902187 | 18.33° C | 60% | 1015 hPa | 0 mm | - | 604 W/m² | - |
| 1777901885 | 18.33° C | 59% | 1015 hPa | 0 mm | - | 632 W/m² | - |
| 1777901582 | 17.78° C | 61% | 1015.1 hPa | 0 mm | - | 632 W/m² | - |
| 1777901279 | 17.78° C | 63% | 1015.1 hPa | 0 mm | - | 592 W/m² | - |
| 1777900977 | 17.22° C | 63% | 1015.2 hPa | 0 mm | - | 544 W/m² | - |
| 1777900674 | 16.67° C | 64% | 1015.4 hPa | 0 mm | - | 469 W/m² | - |
| 1777900371 | 17.22° C | 65% | 1015.2 hPa | 0 mm | - | 464 W/m² | - |
| 1777900068 | 16.67° C | 66% | 1015.6 hPa | 0 mm | - | 463 W/m² | - |
| 1777899764 | 16.67° C | 67% | 1015.5 hPa | 0 mm | - | 406 W/m² | - |
| 1777899461 | 16.67° C | 69% | 1015.6 hPa | 0 mm | - | 383 W/m² | - |
| 1777899159 | 16.11° C | 71% | 1015.6 hPa | 0 mm | - | 362 W/m² | - |
* Rain latest hour (hover to see other rain measurements)
** Current wind speed in m/s (hover to see current wind gust speed)